Regional Weather Roundup
Issued by NWS Cleveland, OH

Home | Current Version | Previous Version | Text Only | Print | Product List | Glossary On
Versions: 1 2 3 4 5 6 7 8 9 10 11 12 13 14 15 16 17 18 19 20 21 22 23 24 25 26 27 28 29 30 31 32 33 34 35 36 37 38 39 40 41 42 43 44 45 46 47 48 49 50
000
ASUS41 KCLE 310112
RWRCLE
OHIO REGIONAL WEATHER ROUNDUP
NATIONAL WEATHER SERVICE WILMINGTON, OH
900 PM EDT SAT JUL 30 2016

NOTE: "FAIR" INDICATES FEW OR NO CLOUDS BELOW 12,000 FEET WITH NO
SIGNIFICANT WEATHER AND/OR OBSTRUCTIONS TO VISIBILITY.

OHZ001>008-015>018-024>027-034-035-043-044-310200-
   NORTHWEST OHIO

CITY           SKY/WX    TMP DP  RH WIND       PRES   REMARKS
DEFIANCE       MOCLDY    74  67  78 NE7       29.95R
FINDLAY        FAIR      80  65  59 NE6       29.93R
TOLEDO EXPRESS LGT RAIN  74  71  91 N5        29.96R
TOLEDO EXEC    FAIR      74  70  87 NE6       29.96R
LIMA           FAIR      76  70  82 NE3       29.94S
$$

OHZ009>014-019>023-028>033-038-089-310200-
   NORTHEAST OHIO

CITY           SKY/WX    TMP DP  RH WIND       PRES   REMARKS
CLE-HOPKINS    FAIR      74  65  73 E6        29.97R
CLE-LAKEFRONT  FAIR      75  68  78 SE3       29.93R
CUY CO. ARPT   PTCLDY    72  72 100 CALM      29.96R
LORAIN-ELYRIA  FAIR      71  68  90 CALM      29.96R FOG
ASHTABULA      FAIR      73  71  93 CALM      29.98R
AKRON-CANTON   FAIR      72  65  78 SE5       29.96R
WOOSTER        FAIR      69  68  96 NE3       29.97R FOG
MANSFIELD      FAIR      72  66  81 N3        29.97R
YOUNGSTOWN     MOCLDY    70  69  97 CALM      29.98R
$$

OHZ042-051>053-060>062-070>072-077>081-310200-
  SOUTHWEST OHIO

CITY           SKY/WX    TMP DP  RH WIND       PRES   REMARKS
CINC-COVINGTON FAIR      77  70  79 W3        29.95S
CINC-LUNKEN    FAIR      75  72  90 S6        29.94S
HAMILTON       FAIR      80  65  59 W5        29.94S
DAYTON         FAIR      77  68  73 NW3       29.95S
WRIGHT-PAT AFB FAIR      80  68  67 NW6       29.94F
DAYTON GENERAL FAIR      81  63  54 W6        29.94S
WILMINGTON     FAIR      75  70  84 S5        29.94S
$$

OHZ036-037-039>041-045>050-054>059-063>069-073>076-082>088-310200-
  CENTRAL AND SOUTHEAST OHIO

CITY           SKY/WX    TMP DP  RH WIND       PRES   REMARKS
COLUMBUS       MOCLDY    75  67  76 E7        29.94R
OSU AIRPORT    MOCLDY    74  70  87 E9        29.94R
BOLTON FIELD   FAIR      75  70  85 S5        29.94S
RICKENBACK AFB FAIR      78  68  71 SW5       29.93R
NEWARK         CLOUDY    72  69  90 SE3       29.94F
MARION         FAIR      76  69  79 SE3       29.96R
LANCASTER      FAIR      74  68  81 NE5       29.95R
ZANESVILLE     LGT RAIN  73  68  84 SW5       29.95F
NEW PHILLY     FAIR      75  69  81 CALM      29.95R
$$



USA.gov is the U.S. government's official web portal to all federal, state and local government web resources and services.